CAPE
0 0 0 0 0 0 0 0 0 0 0 0 0 0 0 0 0 0 0 0 0 0 0 0 0 0 0 0 0 0 0 0 0 0 0 0 0 0 0 0 0 0 0 0 0 0 0 0 0 0 0 0 0 0
0 1 0 0 0 0 0 0 0 0 0 0 0 0 0 0 0 0 0 0 0 0 0 0 0 0 0 0 0 0 0 0 0 0 0 0 0 0 0 0 0 0 0 0 0 0 0 0 0 0 0 0 0 0
0 0 0 0 0 0 0 0 0 0 0 0 0 0 0 0 0 0 0 0 0 0 0 0 0 0 0 0 0 0 0 0 0 0 0 0 0 0 0 0 0 0 0 0 0 0 0 0 0 0 0 0 0 0
0 0 0 0 0 0 0 0 0 0 0 0 0 0 0 0 0 0 0 0 0 0 0 0 0 0 0 0 0 0 0 0 0 0 0 0 0 0 0 2 0 0 0 0 0 0 0 0 0 0 0 0 2 2
0 0 0 0 0 0 0 0 0 0 0 0 0 0 0 0 0 0 0 0 0 0 0 0 0 0 0 0 0 0 0 0 0 1 0 1 0 0 0 0 0 0 0 0 0 4 1 0 3 1 2 2 0 6
0 0 0 0 0 0 0 1 0 1 0 0 0 0 0 0 0 0 0 0 0 0 6 1 0 0 0 0 0 0 0 0 0 0 0 0 0 1 0 0 0 0 0 8 2 9 0 0 1 0 0 0 0 1
0 0 0 0 0 0 0 0 0 1 1 1 1 0 0 0 0 0 0 0 0 0 1 8 0 0 0 0 0 0 0 0 0 0 0 0 0 0 1 8 0 0 0 0 0 0 0 0 1 0 0 0 0 0
0 0 0 0 0 0 0 0 0 0 0 1 0 0 0 0 0 0 0 0 0 0 0 14 0 0 0 0 0 0 1 0 0 0 1 0 0 1 5 0 0 0 0 0 0 0 0 0 0 0 0 0 0 0
0 0 0 0 0 0 0 0 0 0 0 0 0 0 0 0 0 0 0 0 0 0 0 0 0 0 0 0 0 0 0 0 0 0 0 0 1 3 0 0 0 0 0 0 0 0 0 0 0 0 0 0 0 0
0 0 0 0 0 0 0 0 0 0 0 0 0 0 1 0 0 0 0 0 0 0 0 0 0 0 0 0 1 0 0 0 0 0 0 0 0 0 0 0 0 0 0 0 0 0 0 0 0 0 0 0 0 0
0 0 0 0 0 0 0 0 0 0 0 0 0 0 0 0 0 0 1 0 0 0 0 0 0 0 0 0 0 0 0 0 0 0 0 0 0 0 0 0 0 0 0 0 0 0 0 0 0 0 0 0 0 0
0 0 0 0 0 0 0 0 0 0 0 0 0 0 0 0 0 0 0 0 0 0 0 0 0 0 0 0 0 0 0 0 0 0 0 0 0 0 0 0 0 0 0 0 0 0 0 0 0 0 0 0 0 0
0 0 0 0 0 0 0 0 0 0 0 0 0 0 0 0 0 0 0 0 0 0 0 0 0 0 0 0 0 0 0 0 0 0 0 0 0 0 0 0 0 0 0 0 0 0 0 0 0 0 0 0 0 0
0 0 0 0 0 0 0 0 0 0 0 0 0 0 0 0 0 0 0 0 0 0 0 0 0 0 0 0 0 0 0 0 0 0 0 0 0 0 0 0 0 0 0 0 0 0 0 0 0 0 0 0 0 0
0 0 0 0 0 0 0 0 0 0 0 0 0 0 0 0 0 0 0 0 0 0 0 0 0 0 0 0 0 0 0 0 0 0 0 0 0 0 0 0 0 0 0 0 0 0 0 0 0 0 0 0 0 0
2 0 0 0 0 0 0 0 0 0 0 0 0 0 0 0 0 0 0 0 0 0 0 0 0 0 0 0 0 0 0 0 0 0 0 0 0 0 0 0 0 0 0 0 0 0 0 0 0 0 0 0 0 0
0 0 0 0 0 0 0 0 0 0 0 0 0 0 0 0 0 0 0 0 0 0 0 0 0 0 0 0 0 0 0 0 0 0 0 0 0 0 0 0 0 0 0 0 0 0 0 0 0 0 0 0 0 0
0 0 0 0 0 0 0 0 0 0 0 0 0 0 0 0 0 0 0 0 0 0 0 0 0 0 0 0 0 0 0 0 0 0 0 0 0 0 0 0 0 0 0 0 0 0 0 0 0 0 0 0 0 0
0 0 0 0 0 0 0 0 0 0 0 0 0 0 0 0 0 0 0 1 0 0 0 0 0 0 0 0 0 0 0 0 0 0 0 0 0 0 0 0 0 0 0 0 0 0 0 0 0 0 0 0 0 0
0 0 0 0 0 0 0 0 0 0 0 0 0 0 0 0 0 0 0 0 0 0 0 0 0 0 0 0 0 0 0 0 0 0 0 0 0 0 0 0 0 0 0 0 0 0 0 0 0 0 0 0 0 0
0 0 0 0 0 0 0 0 0 0 0 0 0 0 0 0 0 0 0 0 0 0 0 0 0 0 0 0 0 0 0 0 0 0 0 0 0 0 0 0 0 0 0 0 0 0 0 0 0 0 0 2 0 0
1 0 0 0 0 0 0 0 0 0 0 0 0 0 0 0 0 0 0 0 0 0 0 0 0 0 0 0 0 0 0 0 0 0 0 0 0 0 0 0 0 0 0 0 0 0 0 1 0 1 2 1 1 0
0 0 0 0 0 0 0 0 0 0 0 0 0 0 0 0 0 0 0 0 0 0 0 0 0 0 0 0 0 0 0 0 0 0 0 0 0 0 0 0 0 0 0 0 0 0 0 0 0 1 4 1 1 0
0 0 0 0 0 0 0 0 0 0 0 0 0 0 0 0 0 0 0 0 0 0 0 0 0 0 0 0 0 0 0 0 0 0 0 0 0 0 0 0 0 0 0 0 0 0 0 0 1 0 0 0 0 0
0 0 0 0 0 0 0 0 0 0 0 0 0 0 0 0 0 0 0 0 0 0 0 0 0 0 0 0 0 0 0 0 0 0 0 0 0 0 0 0 0 0 0 0 0 0 0 0 0 0 0 2 0 0
0 0 0 0 0 0 0 0 1 0 0 0 0 0 0 0 0 0 0 0 0 0 0 0 0 0 0 0 0 0 0 0 0 0 0 0 0 0 0 0 0 0 0 0 0 0 1 1 0 1 0 0 0 0
0 0 0 0 0 0 0 0 0 0 0 0 0 0 0 0 0 0 0 0 0 0 0 0 0 0 0 0 0 0 0 0 0 0 0 0 0 0 0 0 0 0 0 0 0 1 0 0 0 0 0 0 0 0
0 0 0 0 0 0 0 0 0 0 0 0 0 0 0 0 0 0 0 0 0 0 0 0 0 0 0 0 0 0 0 0 0 0 0 0 0 0 0 0 0 0 0 0 0 0 0 0 0 0 0 0 0 0
0 0 0 0 1 1 0 0 0 0 0 0 0 0 0 0 0 0 0 0 0 0 0 0 0 0 0 0 0 0 0 0 0 0 0 0 0 0 0 0 0 0 0 0 0 0 0 0 0 0 0 0 0 0
0 0 0 0 0 0 0 0 0 0 0 0 0 0 0 0 0 0 0 0 0 0 0 0 0 0 0 0 0 0 0 0 0 0 0 0 0 0 0 0 0 0 0 0 0 0 0 0 0 0 0 0 0 0
0 0 0 0 0 0 0 0 0 0 0 0 0 0 0 0 0 0 0 0 0 0 0 0 0 0 0 0 0 0 0 0 0 0 0 0 0 0 0 0 0 0 0 0 0 0 0 0 0 0 0 0 0 0
0 0 0 0 0 0 0 0 0 0 0 0 0 0 0 0 0 0 0 0 0 0 0 0 0 0 0 0 0 0 0 0 0 0 0 0 0 0 0 0 0 0 0 0 0 0 0 0 0 0 0 0 0 0
0 0 0 0 0 0 0 0 0 0 0 0 0 0 0 0 0 0 0 0 0 0 0 0 0 0 0 0 0 0 0 0 0 0 0 0 0 0 0 0 0 0 0 0 0 0 0 0 0 0 0 0 0 0
CIN
0 0 0 0 0 0 0 0 0 0 0 0 0 0 0 0 0 0 0 0 0 0 0 0 0 0 0 0 0 0 0 0 0 0 0 0 0 0 0 0 0 0 0 0 0 0 0 0 0 0 0 0 0 0
0 0 0 0 0 0 0 0 0 0 0 0 0 0 0 0 0 0 0 0 0 0 0 0 0 0 0 0 0 0 0 0 0 0 0 0 0 0 0 0 0 0 0 0 0 0 0 0 0 0 0 0 0 0
0 0 0 0 0 0 0 0 0 0 0 0 0 0 0 0 0 0 0 0 0 0 0 0 0 0 0 0 0 0 0 0 0 0 0 0 0 0 0 0 0 0 0 0 0 0 0 0 0 0 0 0 0 0
0 0 0 0 0 0 0 0 0 0 0 0 0 0 0 0 0 0 0 0 0 0 0 0 0 0 0 0 0 0 0 0 0 0 0 0 0 0 0 -4 0 0 0 0 0 0 0 0 0 0 0 0 0 -1
0 0 0 0 0 0 0 0 0 0 0 0 0 0 0 0 0 0 0 0 0 0 -2 0 0 0 0 0 0 0 0 0 0 0 0 -1 0 0 0 0 0 0 0 0 0 -22 -25 0 0 0 0 0 0 -10
0 0 0 0 0 0 0 0 0 0 0 0 0 0 0 0 0 0 0 0 0 0 -32 -11 0 0 0 0 0 0 0 0 0 0 0 0 0 -1 0 0 0 0 0 -54 -30 -32 0 0 0 0 0 0 0 -37
0 0 0 0 0 0 0 0 0 0 0 0 0 0 0 0 0 0 0 0 0 0 -8 -9 -8 0 0 0 0 0 0 0 0 0 0 -8 0 -1 0 -1 0 0 0 0 0 0 0 0 0 0 0 0 0 0
0 0 0 0 0 0 0 0 0 0 0 0 0 0 0 0 0 0 0 0 0 0 0 -1 0 0 0 0 0 0 0 0 0 0 0 0 0 0 -9 0 0 0 0 0 0 0 0 0 0 0 0 0 0 0
0 0 0 0 0 0 0 0 0 0 0 0 0 0 0 0 0 0 0 0 0 0 0 0 0 0 0 0 0 0 0 0 0 0 0 0 0 -8 0 0 0 0 0 0 0 0 0 0 0 0 0 0 0 0
0 0 0 0 0 0 0 0 0 0 0 0 0 0 0 0 0 0 0 0 0 0 0 0 0 0 0 0 0 0 0 0 0 0 0 0 0 0 0 0 0 0 0 0 0 0 0 0 0 0 0 0 0 0
0 -3 0 0 0 0 0 0 0 0 0 0 0 0 0 0 0 0 0 -1 0 0 0 0 0 0 0 0 0 0 0 0 0 0 0 0 0 0 0 0 0 0 0 0 0 0 0 0 0 0 0 0 0 0
0 0 0 0 0 0 0 0 0 0 0 0 0 0 0 0 0 0 0 0 0 0 0 0 0 0 0 0 0 0 0 0 0 0 0 0 0 0 0 0 0 0 0 0 0 0 0 0 0 0 0 0 0 0
0 0 0 0 0 0 0 0 0 0 0 0 0 0 0 0 0 -1 0 0 0 0 0 0 0 0 0 0 0 0 0 0 0 0 0 0 0 0 0 0 0 0 0 0 0 0 0 0 0 0 0 0 0 0
0 0 0 0 0 0 0 0 0 0 0 0 0 0 0 0 0 0 0 0 0 0 0 0 0 0 0 0 0 0 0 0 0 0 0 0 0 0 0 0 0 0 0 0 0 0 0 0 0 0 0 0 0 0
0 0 0 0 0 0 0 0 0 0 0 0 0 0 0 0 0 0 0 0 0 0 0 0 0 0 0 0 0 0 0 -1 0 0 0 0 0 0 0 0 0 0 0 0 0 0 0 0 0 0 0 0 0 0
-24 0 0 0 0 0 0 0 0 0 0 0 0 0 0 0 0 0 0 0 0 0 0 0 0 0 0 0 0 0 0 0 0 0 0 0 0 0 0 0 0 0 0 0 0 0 0 0 0 0 0 0 0 0
-2 0 0 0 0 0 0 0 0 0 0 0 0 0 0 0 0 0 0 0 0 0 0 0 0 0 0 0 0 0 0 0 0 0 0 0 0 0 0 0 0 0 0 0 0 0 0 0 0 0 0 0 0 0
0 0 0 0 0 0 0 0 0 0 0 0 0 0 0 0 0 0 0 0 0 0 0 0 0 0 0 0 0 0 0 0 0 0 0 0 0 0 0 0 0 0 0 0 0 0 0 0 0 0 0 0 0 0
0 0 0 0 0 0 0 0 0 0 0 0 0 0 0 0 0 0 0 0 0 0 0 0 0 0 0 0 0 0 0 0 0 0 0 0 0 0 0 0 0 0 0 0 0 0 0 0 0 0 0 0 0 0
0 0 0 0 0 0 0 0 0 0 0 0 0 0 0 0 0 0 0 0 0 0 0 0 0 0 0 0 0 0 0 0 0 0 0 0 0 0 0 0 0 0 0 0 0 0 0 0 -1 0 0 0 0 0
0 0 0 0 0 0 0 0 0 0 0 0 0 0 0 0 0 0 0 0 0 -1 0 0 0 0 0 0 0 0 0 0 0 0 0 0 0 0 0 0 0 0 0 0 0 0 0 0 0 -1 0 0 0 0
0 0 0 0 0 0 0 0 0 0 0 0 0 0 0 0 0 0 0 0 0 0 0 0 0 0 0 0 0 0 0 0 0 0 0 0 0 0 0 0 0 0 0 0 0 0 0 -6 0 -1 0 -1 0 0
0 0 0 0 0 0 0 0 0 0 0 0 0 0 0 0 0 0 0 0 0 0 0 0 0 0 0 0 0 0 0 0 0 0 0 0 0 0 0 0 0 0 0 0 0 0 0 0 -1 0 -1 -1 0 0
0 0 0 0 0 0 0 -1 0 0 0 0 0 0 0 0 0 0 0 0 0 0 0 0 0 0 0 0 0 0 0 0 0 0 0 0 0 0 0 0 0 0 0 0 0 0 0 0 -6 0 0 0 0 0
0 0 0 0 0 0 0 0 0 0 0 0 0 0 0 0 0 0 0 0 0 0 0 0 0 0 0 0 0 0 0 0 0 0 0 0 0 0 0 0 0 0 0 0 0 0 0 0 0 0 -1 0 0 0
0 0 0 0 0 0 0 0 0 0 0 0 0 0 0 0 0 0 0 0 0 0 0 0 0 0 0 0 0 0 0 0 0 0 0 0 0 0 0 0 0 0 0 0 0 0 -1 -3 -2 -1 0 0 0 0
0 0 0 0 0 0 0 0 0 0 0 0 0 0 0 0 0 0 0 0 0 0 0 0 0 0 0 0 0 0 0 0 0 0 0 0 0 0 0 0 0 0 0 0 0 0 0 0 0 0 0 0 0 0
0 0 0 0 0 0 0 0 0 0 0 0 0 0 0 0 0 0 0 0 0 0 0 0 0 0 0 0 0 0 0 0 0 0 0 0 0 0 0 0 0 0 0 0 0 0 0 0 0 0 0 0 0 0
0 0 0 0 0 0 0 0 0 0 0 0 0 0 0 0 0 0 0 0 0 0 0 0 0 0 0 0 0 0 0 0 0 0 0 0 0 0 0 0 0 0 0 0 0 0 0 0 0 0 0 0 0 0
0 0 0 0 0 0 0 0 0 0 0 0 0 0 0 0 0 0 0 0 0 0 0 0 0 0 0 0 0 0 0 0 0 0 0 0 0 0 0 0 0 0 0 0 0 0 0 0 0 0 0 0 0 0
0 0 0 0 0 0 0 0 0 0 0 0 0 0 0 0 0 0 0 0 0 0 0 0 0 0 0 0 0 0 0 0 0 0 0 0 0 0 0 0 0 0 0 0 0 0 0 0 0 0 0 0 0 0
0 0 0 0 0 0 0 0 0 0 0 0 0 0 0 0 0 0 0 0 0 0 0 0 0 0 0 0 0 0 0 0 0 0 0 0 0 0 0 0 0 0 0 0 0 0 0 0 0 0 0 0 0 0
0 0 0 0 0 0 0 0 0 0 0 0 0 0 0 0 0 0 0 0 0 0 0 0 0 0 0 0 0 0 0 0 0 0 0 0 0 0 0 0 0 0 0 0 0 0 0 0 0 0 0 0 0 0
Wind_Speed
8 4 12 14 14 14 13 11 10 8 6 5 2 2 6 8 10 4 1 4 4 3 3 4 2 5 2 2 5 4 5 4 3 4 4 4 3 6 2 4 6 6 5 5 1 2 10 5 2 4 7 4 5 5
7 5 8 13 15 14 14 12 11 10 8 7 5 2 3 7 8 4 3 2 2 5 3 1 3 1 3 7 6 1 3 4 5 5 2 3 3 1 5 4 2 4 9 5 9 10 5 5 7 6 2 6 5 2
5 6 7 11 13 15 15 14 12 11 10 8 7 5 3 4 7 5 3 1 4 4 4 3 2 4 1 4 3 5 3 3 2 2 5 2 3 4 5 7 5 5 4 5 2 7 13 8 13 8 3 1 2 6
5 5 7 4 11 14 15 15 14 13 11 10 9 7 7 5 5 6 3 1 5 4 4 6 3 4 3 3 3 2 5 5 5 3 3 3 3 5 4 5 5 6 3 4 8 15 14 13 12 4 5 10 8 3
4 8 9 7 7 13 15 14 14 13 12 11 10 9 8 8 7 5 2 1 1 5 4 4 5 4 3 0 3 0 3 4 3 2 2 4 2 1 3 3 4 6 8 6 11 13 11 6 10 13 14 10 4 7
5 9 10 9 5 10 14 15 14 13 12 12 11 11 11 11 8 4 3 2 3 2 4 2 3 1 5 4 2 4 4 3 4 4 4 3 3 4 4 4 4 13 13 14 15 7 5 9 13 11 4 4 7 7
4 6 9 7 7 3 10 13 14 14 13 13 12 12 13 13 3 3 5 1 4 3 4 3 4 3 2 4 3 2 1 2 3 2 3 3 4 4 2 9 7 11 9 6 4 7 4 2 3 3 3 5 6 7
4 3 11 8 8 7 4 8 12 14 16 16 14 13 12 11 8 2 2 3 2 5 3 3 3 4 2 2 2 2 1 1 1 2 1 2 2 1 4 3 6 5 4 11 11 12 9 6 4 4 5 6 7 8
6 4 9 7 5 5 4 5 9 12 12 16 17 17 5 3 2 2 6 8 4 2 4 3 5 4 2 1 1 2 1 1 1 0 1 2 1 5 4 8 8 7 5 9 9 11 10 8 6 7 9 8 7 8
7 5 5 6 6 4 4 9 10 13 20 16 4 4 2 2 8 5 5 3 3 4 3 2 2 2 2 1 1 2 2 1 2 1 2 2 1 3 6 6 7 10 10 8 6 7 6 6 8 9 8 7 7 7
7 6 5 6 7 9 9 12 15 19 6 3 3 3 1 1 4 4 3 2 0 1 1 1 2 2 3 2 3 1 1 1 2 4 2 1 2 3 1 4 4 5 5 3 3 4 6 8 9 10 11 8 7 7
8 7 6 6 6 6 10 10 7 3 2 5 7 5 3 2 3 3 2 1 2 3 2 2 1 1 1 1 2 0 2 1 4 1 1 3 3 4 4 4 5 1 2 3 3 6 8 8 8 8 10 11 9 10
9 9 8 7 7 8 6 4 5 12 5 3 5 4 3 3 2 5 6 2 2 2 2 2 2 1 1 3 2 1 2 4 1 1 4 4 4 4 4 1 4 6 5 6 7 7 8 9 9 7 11 11 10 11
11 9 9 8 9 9 11 9 6 4 4 5 4 4 2 1 1 4 2 3 1 1 2 2 2 2 1 2 1 2 1 1 1 2 6 2 3 3 2 2 3 6 6 7 8 8 8 9 11 12 9 10 8 11
12 11 10 9 10 10 11 9 7 5 4 4 4 3 3 2 1 1 0 2 1 2 2 3 3 2 1 3 1 2 1 3 5 5 3 3 3 2 3 3 7 7 7 7 8 7 9 9 8 12 11 8 7 9
15 12 2 11 10 10 8 7 6 3 4 4 5 4 1 2 1 1 2 2 1 2 2 3 3 4 2 3 3 5 5 6 5 4 3 1 2 4 5 6 7 7 8 9 8 8 9 8 9 12 14 11 10 8
11 2 12 13 14 14 11 5 4 6 4 4 2 1 3 2 4 4 2 2 2 3 2 3 4 7 2 3 2 5 6 5 4 3 2 3 4 7 8 7 7 8 9 8 9 8 9 9 7 6 11 13 9 9
3 9 17 13 6 6 4 4 5 4 3 1 2 2 1 2 2 1 1 1 3 3 3 3 3 3 5 5 5 5 4 3 3 3 3 5 7 9 7 9 10 9 9 8 7 8 7 7 7 9 11 11 10 10
11 12 13 9 7 6 4 3 3 3 2 2 0 1 2 2 1 1 1 1 1 2 4 2 3 4 5 4 5 3 3 3 4 4 4 6 7 8 8 8 8 9 8 7 7 6 7 8 9 8 8 8 8 8
20 17 13 10 7 4 4 2 2 4 2 2 2 1 2 2 0 1 1 0 3 3 3 4 5 4 5 4 4 4 4 4 2 4 7 4 5 7 7 7 7 7 7 6 5 5 6 8 7 6 5 9 8 8
12 4 11 5 4 5 4 2 3 2 2 2 0 2 1 1 1 0 1 1 2 3 3 5 5 5 5 3 4 4 5 5 6 6 6 8 4 4 5 6 5 4 4 4 5 6 6 8 8 10 9 8 8 6
4 9 4 5 5 5 4 2 3 1 3 1 3 2 2 1 2 2 2 4 5 5 6 5 6 4 5 5 7 6 7 7 6 5 6 7 5 3 3 4 1 4 4 5 6 7 7 7 7 8 8 9 8 4
8 5 5 4 6 6 3 1 5 2 4 2 3 3 3 2 3 1 3 4 5 5 4 4 6 6 8 8 5 7 7 7 5 6 6 5 5 5 5 5 4 5 6 6 4 5 6 9 9 8 8 8 6 3
4 5 4 3 5 1 2 2 2 3 3 3 3 2 3 4 0 1 4 4 6 1 3 6 4 3 2 5 4 6 5 4 4 3 4 4 6 7 5 4 3 4 5 6 5 6 6 8 9 5 10 8 6 4
7 3 7 3 1 4 3 4 1 2 3 2 3 4 4 2 2 3 5 5 3 3 4 2 2 4 4 3 3 4 5 5 5 5 5 5 4 4 3 3 4 5 2 2 6 6 9 9 10 10 9 9 8 7
4 2 5 5 4 4 6 5 5 6 3 3 6 2 3 4 2 7 5 5 4 4 4 4 3 1 3 5 4 3 5 2 3 3 4 4 5 4 3 6 6 4 2 2 4 9 10 9 10 11 11 12 10 10
3 4 3 0 3 4 3 2 2 4 4 6 4 2 3 3 7 6 4 3 3 4 4 3 4 5 5 4 4 4 3 3 6 5 2 3 4 5 5 5 5 3 2 5 6 8 10 10 9 9 10 10 9 9
5 5 7 5 3 1 5 2 5 6 5 3 4 4 8 10 7 5 6 4 5 2 3 3 3 1 2 3 3 3 4 2 2 2 3 3 3 0 1 2 3 6 2 4 5 7 6 6 7 8 10 11 12 10
2 2 4 4 1 1 5 7 6 5 4 5 5 5 7 5 4 2 3 3 3 3 3 4 5 3 4 4 4 3 2 2 1 6 8 4 3 2 4 4 4 2 2 4 7 6 7 5 4 3 6 6 7 7
4 3 3 3 5 6 6 7 5 4 2 4 2 4 4 3 3 4 6 6 6 5 3 3 3 3 4 4 3 2 4 3 3 1 1 2 3 3 4 4 5 5 4 4 4 6 7 5 5 5 5 5 6 6
1 3 2 1 5 5 5 2 2 0 1 4 4 7 12 2 4 4 9 6 6 6 6 7 6 4 4 5 3 4 2 3 4 4 3 1 2 3 4 5 5 5 4 4 3 2 3 4 4 4 6 7 8 8
1 4 5 3 5 4 4 2 2 2 4 1 6 1 4 3 4 4 7 7 7 8 8 7 6 5 6 5 1 2 5 3 3 3 5 3 3 4 4 4 5 4 3 3 3 3 4 5 4 6 5 7 8 8
2 2 2 2 5 6 4 3 4 6 3 3 3 0 1 3 4 3 4 7 7 8 9 9 7 6 5 7 7 6 6 5 8 9 9 7 7 6 4 4 4 4 4 4 5 4 6 6 6 6 7 7 7 7
Wind_Direction
341 272 196 188 186 179 180 184 187 187 188 199 195 14 14 27 20 68 116 20 104 111 261 188 178 126 99 107 139 206 56 349 62 95 139 205 153 223 170 228 193 181 180 209 117 223 279 194 131 179 229 245 283 262
326 13 218 197 188 183 181 182 186 185 184 188 192 165 21 26 19 60 74 357 23 91 202 305 272 259 145 177 135 34 182 164 177 93 177 117 200 128 187 239 149 259 198 190 187 217 240 226 252 259 278 276 273 231
345 340 305 203 192 186 182 180 184 183 182 183 182 175 151 66 38 79 114 357 59 60 340 26 273 339 36 197 160 123 300 179 185 145 148 183 207 125 187 225 210 263 185 230 332 253 263 283 291 295 291 282 62 68
56 24 340 234 201 190 184 180 184 185 183 178 177 169 153 132 57 57 81 153 81 100 105 282 340 290 302 181 183 149 145 93 92 90 140 152 192 188 214 235 202 200 170 239 252 276 283 275 285 323 81 71 62 54
42 56 16 344 221 199 186 181 183 183 180 178 173 170 152 144 106 81 60 242 147 126 187 266 294 267 322 36 244 64 129 117 139 101 135 209 215 124 232 91 210 189 229 245 264 271 262 328 65 71 69 43 348 287
35 59 31 359 344 202 187 179 177 178 175 170 165 163 153 146 130 75 6 233 175 125 96 326 289 292 2 38 180 206 195 170 166 166 210 248 225 162 221 213 233 228 238 244 262 301 87 103 94 85 123 229 271 297
39 75 70 20 23 73 175 173 174 171 169 162 158 155 158 165 135 159 186 249 167 94 93 309 295 337 22 35 45 58 39 184 179 198 204 198 212 180 225 274 277 264 266 289 339 129 129 91 130 201 311 306 308 283
98 83 79 54 45 53 108 150 163 168 169 159 154 155 148 127 114 154 18 20 135 96 90 198 254 350 19 26 38 351 98 27 303 244 40 143 348 122 251 329 336 335 333 58 55 55 73 88 65 20 345 309 308 310
134 97 85 74 45 46 80 135 149 139 149 132 118 110 82 58 122 166 135 72 48 93 189 139 153 211 62 170 125 29 71 2 339 227 241 124 207 223 330 313 357 360 54 114 69 54 46 34 336 294 280 285 281 289
162 140 104 84 77 56 145 139 136 133 118 111 81 73 44 269 115 131 23 44 36 13 4 132 326 149 189 38 3 79 10 145 257 232 313 192 215 83 20 56 70 65 72 59 46 22 337 280 268 285 274 270 259 275
170 148 128 123 109 55 119 130 127 111 73 53 78 93 223 31 62 31 69 106 242 209 170 157 196 95 352 132 171 177 188 167 234 270 255 249 203 153 319 61 77 105 124 146 175 233 264 269 291 294 297 273 278 282
162 149 152 148 131 90 68 104 115 80 136 145 110 93 56 34 72 115 120 97 214 202 166 148 161 149 337 336 104 240 163 140 243 322 73 273 210 151 155 186 216 184 32 351 334 306 294 288 289 298 302 303 294 287
158 156 143 138 134 111 90 143 144 114 117 70 63 75 72 358 87 181 181 226 227 170 167 148 100 77 53 42 68 102 180 227 302 71 232 228 160 165 201 271 345 346 330 308 301 301 299 294 301 290 295 290 280 286
154 149 130 130 123 105 89 92 101 47 62 73 105 90 102 145 207 190 179 147 169 118 126 97 85 101 48 68 94 113 184 209 301 252 237 265 148 183 259 337 340 299 290 284 289 290 289 288 289 289 274 268 270 279
148 141 130 130 123 112 97 81 70 44 65 75 68 144 175 208 90 76 84 85 59 126 105 95 72 76 77 90 163 100 154 245 210 230 223 225 234 286 285 299 288 285 286 291 285 280 277 279 277 285 292 275 263 272
137 122 139 145 127 111 99 70 41 69 53 72 64 96 55 86 149 245 155 131 147 109 91 58 109 63 272 126 135 198 165 224 252 216 223 257 311 285 266 271 276 274 276 277 279 272 276 280 285 292 300 296 285 275
115 89 152 128 104 80 54 72 55 50 96 58 18 68 90 122 180 218 170 168 136 86 167 110 108 209 79 53 251 182 200 213 201 234 221 223 243 262 267 275 278 274 281 278 276 283 286 288 286 290 298 304 287 276
77 137 134 129 103 58 41 41 77 75 76 144 125 215 148 178 141 304 193 184 104 110 123 209 119 97 185 186 252 238 232 255 219 213 217 248 261 264 265 270 275 269 273 279 267 278 278 284 296 304 294 296 296 299
135 135 129 119 108 95 77 21 61 109 197 169 158 127 145 187 261 334 147 214 126 134 113 68 92 210 225 207 201 236 250 215 234 240 228 231 244 256 263 264 269 279 280 272 281 283 290 281 271 281 283 293 291 298
108 92 84 64 54 85 75 70 52 91 170 212 96 110 127 125 86 83 154 60 123 126 177 212 218 216 197 215 192 199 202 207 179 289 288 242 234 254 257 267 273 277 280 283 271 269 287 294 302 277 267 294 295 299
83 64 58 61 52 56 87 103 24 178 153 101 39 113 119 34 103 257 272 162 58 216 235 224 216 229 223 211 202 222 236 202 225 212 254 286 259 235 267 271 267 266 261 272 277 282 276 300 301 302 299 294 288 278
82 87 74 24 68 18 74 340 138 207 82 184 48 47 62 46 236 223 196 193 229 228 214 221 249 249 258 252 240 213 237 236 237 237 248 260 272 264 258 242 227 258 250 253 260 266 283 299 294 293 296 302 300 269
91 56 54 47 72 43 262 31 65 4 97 280 30 40 317 301 229 226 237 234 249 242 219 219 236 228 235 254 258 257 238 241 250 247 253 247 247 247 249 247 213 252 278 280 237 256 284 297 293 294 304 301 294 259
62 64 83 74 79 116 358 86 50 63 37 59 89 298 265 226 146 197 248 241 246 269 206 228 211 244 287 258 247 255 257 190 231 259 239 233 261 262 232 237 216 224 243 277 284 289 293 293 288 303 306 288 274 254
79 348 85 76 82 90 108 166 166 77 218 197 117 284 258 81 151 232 228 259 259 251 257 281 232 207 216 254 278 260 244 191 214 233 257 211 247 310 271 233 238 236 222 275 287 293 305 303 303 295 297 288 271 259
96 220 132 190 151 132 181 151 198 208 155 182 228 272 32 100 104 244 228 228 229 220 230 216 210 222 254 211 234 265 260 189 147 213 262 219 227 227 255 291 304 293 234 235 281 300 295 292 293 291 295 293 273 265
125 179 185 79 131 119 67 38 74 110 162 204 228 144 106 192 238 247 267 224 218 228 214 199 175 185 217 241 236 256 242 207 206 228 200 217 224 236 254 274 292 260 279 286 290 291 293 296 295 295 294 292 284 277
180 168 169 179 205 129 140 124 163 206 227 200 93 177 194 200 229 232 214 233 221 271 250 240 227 256 296 271 256 269 287 278 281 310 312 289 264 348 47 316 281 272 278 301 301 312 322 303 305 309 317 314 309 302
187 171 104 150 328 185 201 188 210 223 197 160 183 228 237 221 233 247 328 330 333 24 348 340 316 334 319 301 264 235 236 251 271 291 296 271 315 321 2 324 305 302 295 323 326 316 302 291 285 291 317 326 330 345
241 147 121 164 167 217 233 182 216 236 215 199 215 310 297 297 58 9 2 3 3 347 312 287 332 343 338 342 333 25 22 25 11 327 220 257 263 311 331 329 328 340 345 324 317 316 331 5 346 352 359 4 4 13
119 85 73 162 227 241 231 265 295 285 260 233 232 241 264 249 99 30 24 358 352 10 17 8 349 358 3 353 343 335 347 13 32 45 50 27 347 354 348 339 332 325 318 309 340 345 356 6 5 351 26 31 26 33
164 196 161 222 269 282 18 77 272 250 276 218 266 118 359 75 72 41 8 359 2 6 351 337 332 324 322 318 356 50 61 31 14 12 24 13 3 0 347 338 335 332 351 27 23 33 45 53 38 39 49 47 43 42
31 34 42 3 337 338 313 35 350 319 335 306 290 297 57 78 90 1 357 5 355 350 336 324 310 310 345 47 37 32 28 24 28 26 27 38 31 15 3 349 342 358 41 47 39 48 58 65 57 53 54 53 48 44